Time,TemperatureF,DewpointF,PressureIn,WindDirection,WindDirectionDegrees,WindSpeedMPH,WindSpeedGustMPH,Humidity,HourlyPrecipIn,Conditions,Clouds,dailyrainin,SoftwareType,DateUTC
2013-05-11 00:01:00,63.4,56.9,29.76,North,-999,-999.0,-999.0,79,0.00,,,0.00,tws,2013-05-11 04:01:00,
2013-05-11 00:06:00,63.4,57.1,29.76,North,-999,-999.0,-999.0,79,0.00,,,0.00,tws,2013-05-11 04:06:00,
2013-05-11 00:11:00,63.3,57.3,29.76,North,-999,-999.0,-999.0,80,0.00,,,0.00,tws,2013-05-11 04:11:00,
2013-05-11 00:16:00,63.2,57.3,29.75,North,-999,-999.0,-999.0,80,0.00,,,0.00,tws,2013-05-11 04:16:00,
2013-05-11 00:21:00,63.1,57.3,29.75,North,-999,-999.0,-999.0,81,0.00,,,0.00,tws,2013-05-11 04:21:00,
2013-05-11 00:26:00,63.0,57.2,29.75,North,-999,-999.0,-999.0,81,0.00,,,0.00,tws,2013-05-11 04:26:00,
2013-05-11 00:30:00,62.9,57.2,29.75,North,-999,-999.0,-999.0,81,0.00,,,0.00,tws,2013-05-11 04:30:00,
2013-05-11 00:36:00,62.8,57.4,29.74,North,-999,-999.0,-999.0,82,0.00,,,0.00,tws,2013-05-11 04:36:00,
2013-05-11 00:41:00,62.7,57.3,29.74,North,-999,-999.0,-999.0,82,0.00,,,0.00,tws,2013-05-11 04:41:00,
2013-05-11 00:46:00,62.6,57.2,29.74,North,-999,-999.0,-999.0,82,0.00,,,0.00,tws,2013-05-11 04:46:00,
2013-05-11 00:51:00,62.4,57.3,29.74,North,-999,-999.0,-999.0,83,0.00,,,0.00,tws,2013-05-11 04:51:00,
2013-05-11 00:56:00,62.4,57.3,29.74,North,-999,-999.0,-999.0,83,0.00,,,0.00,tws,2013-05-11 04:56:00,
2013-05-11 01:01:00,62.3,57.4,29.74,North,-999,-999.0,-999.0,83,0.00,,,0.00,tws,2013-05-11 05:01:00,
2013-05-11 01:06:00,62.2,57.6,29.74,North,-999,-999.0,-999.0,84,0.00,,,0.00,tws,2013-05-11 05:06:00,
2013-05-11 01:11:00,62.2,57.8,29.74,North,-999,-999.0,-999.0,85,0.00,,,0.00,tws,2013-05-11 05:11:00,
2013-05-11 01:16:00,62.0,57.7,29.74,North,-999,-999.0,-999.0,85,0.00,,,0.00,tws,2013-05-11 05:16:00,
2013-05-11 01:21:00,62.0,57.7,29.74,North,-999,-999.0,-999.0,85,0.00,,,0.00,tws,2013-05-11 05:21:00,
2013-05-11 01:26:00,61.9,57.8,29.74,North,-999,-999.0,-999.0,86,0.00,,,0.00,tws,2013-05-11 05:26:00,
2013-05-11 01:31:00,61.9,57.9,29.74,North,-999,-999.0,-999.0,86,0.00,,,0.00,tws,2013-05-11 05:31:00,
2013-05-11 01:36:00,61.8,58.0,29.74,North,-999,-999.0,-999.0,87,0.00,,,0.00,tws,2013-05-11 05:36:00,
2013-05-11 01:41:00,61.7,57.9,29.73,North,-999,-999.0,-999.0,87,0.00,,,0.00,tws,2013-05-11 05:41:00,
2013-05-11 01:46:00,61.6,57.8,29.73,North,-999,-999.0,-999.0,86,0.00,,,0.00,tws,2013-05-11 05:46:00,
2013-05-11 01:51:00,61.6,57.8,29.73,North,-999,-999.0,-999.0,87,0.00,,,0.00,tws,2013-05-11 05:51:00,
2013-05-11 01:56:00,61.5,57.9,29.73,North,-999,-999.0,-999.0,87,0.00,,,0.00,tws,2013-05-11 05:56:00,
2013-05-11 02:01:00,61.5,58.0,29.73,North,-999,-999.0,-999.0,88,0.00,,,0.00,tws,2013-05-11 06:01:00,
2013-05-11 02:06:00,61.5,58.1,29.72,North,-999,-999.0,-999.0,88,0.00,,,0.00,tws,2013-05-11 06:06:00,
2013-05-11 02:11:00,61.4,58.1,29.72,North,-999,-999.0,-999.0,88,0.00,,,0.00,tws,2013-05-11 06:11:00,
2013-05-11 02:16:00,61.4,58.2,29.72,North,-999,-999.0,-999.0,89,0.00,,,0.00,tws,2013-05-11 06:16:00,
2013-05-11 02:21:00,61.4,58.1,29.72,North,-999,-999.0,-999.0,88,0.00,,,0.00,tws,2013-05-11 06:21:00,
2013-05-11 02:26:00,61.5,58.2,29.72,North,-999,-999.0,-999.0,88,0.00,,,0.00,tws,2013-05-11 06:26:00,
2013-05-11 02:31:00,61.5,58.1,29.71,North,-999,-999.0,-999.0,88,0.00,,,0.00,tws,2013-05-11 06:31:00,
2013-05-11 02:36:00,61.5,58.0,29.71,North,-999,-999.0,-999.0,88,0.00,,,0.00,tws,2013-05-11 06:36:00,
2013-05-11 02:41:00,61.5,58.0,29.70,North,-999,-999.0,-999.0,88,0.00,,,0.00,tws,2013-05-11 06:41:00,
2013-05-11 02:46:00,61.6,58.0,29.70,North,-999,-999.0,-999.0,87,0.00,,,0.00,tws,2013-05-11 06:46:00,
2013-05-11 02:51:00,61.6,57.8,29.70,North,-999,-999.0,-999.0,87,0.00,,,0.00,tws,2013-05-11 06:51:00,
2013-05-11 02:56:00,61.6,57.7,29.70,North,-999,-999.0,-999.0,87,0.00,,,0.00,tws,2013-05-11 06:56:00,
2013-05-11 03:01:00,61.5,57.5,29.69,North,-999,-999.0,-999.0,86,0.00,,,0.00,tws,2013-05-11 07:01:00,
2013-05-11 03:06:00,61.5,57.5,29.69,North,-999,-999.0,-999.0,86,0.00,,,0.00,tws,2013-05-11 07:06:00,
2013-05-11 03:11:00,61.5,57.3,29.70,North,-999,-999.0,-999.0,86,0.00,,,0.00,tws,2013-05-11 07:11:00,
2013-05-11 03:16:00,61.4,57.3,29.69,North,-999,-999.0,-999.0,86,0.00,,,0.00,tws,2013-05-11 07:16:00,
2013-05-11 03:21:00,61.3,57.3,29.69,North,-999,-999.0,-999.0,86,0.00,,,0.00,tws,2013-05-11 07:21:00,
2013-05-11 03:26:00,61.2,57.4,29.69,North,-999,-999.0,-999.0,87,0.00,,,0.00,tws,2013-05-11 07:26:00,
2013-05-11 03:31:00,61.1,57.5,29.69,North,-999,-999.0,-999.0,87,0.00,,,0.00,tws,2013-05-11 07:31:00,
2013-05-11 03:36:00,61.0,57.3,29.69,North,-999,-999.0,-999.0,87,0.00,,,0.00,tws,2013-05-11 07:36:00,
2013-05-11 03:41:00,60.9,57.2,29.69,North,-999,-999.0,-999.0,87,0.00,,,0.00,tws,2013-05-11 07:41:00,
2013-05-11 03:46:00,60.7,57.1,29.69,North,-999,-999.0,-999.0,87,0.00,,,0.00,tws,2013-05-11 07:46:00,
2013-05-11 03:51:00,60.6,57.1,29.69,North,-999,-999.0,-999.0,88,0.00,,,0.00,tws,2013-05-11 07:51:00,
2013-05-11 03:56:00,60.5,57.0,29.69,North,-999,-999.0,-999.0,88,0.00,,,0.00,tws,2013-05-11 07:56:00,
2013-05-11 04:01:00,60.3,56.8,29.69,North,-999,-999.0,-999.0,88,0.00,,,0.00,tws,2013-05-11 08:01:00,
2013-05-11 04:06:00,60.1,56.6,29.69,North,-999,-999.0,-999.0,88,0.00,,,0.00,tws,2013-05-11 08:06:00,
2013-05-11 04:11:00,59.9,56.5,29.68,North,-999,-999.0,-999.0,88,0.00,,,0.00,tws,2013-05-11 08:11:00,
2013-05-11 04:16:00,59.7,56.3,29.68,North,-999,-999.0,-999.0,88,0.00,,,0.00,tws,2013-05-11 08:16:00,
2013-05-11 04:21:00,59.5,56.2,29.68,North,-999,-999.0,-999.0,88,0.00,,,0.00,tws,2013-05-11 08:21:00,
2013-05-11 04:26:00,59.2,56.1,29.69,North,-999,-999.0,-999.0,89,0.00,,,0.00,tws,2013-05-11 08:26:00,
2013-05-11 04:31:00,59.0,56.2,29.69,North,-999,-999.0,-999.0,90,0.00,,,0.00,tws,2013-05-11 08:31:00,
2013-05-11 04:36:00,58.9,56.1,29.69,North,-999,-999.0,-999.0,90,0.00,,,0.00,tws,2013-05-11 08:36:00,
2013-05-11 04:41:00,58.8,56.0,29.69,North,-999,-999.0,-999.0,90,0.00,,,0.00,tws,2013-05-11 08:41:00,
2013-05-11 04:46:00,58.6,56.0,29.69,North,-999,-999.0,-999.0,91,0.00,,,0.00,tws,2013-05-11 08:46:00,
2013-05-11 04:51:00,58.4,55.9,29.69,North,-999,-999.0,-999.0,91,0.00,,,0.00,tws,2013-05-11 08:51:00,
2013-05-11 04:56:00,58.3,55.8,29.68,North,-999,-999.0,-999.0,91,0.00,,,0.00,tws,2013-05-11 08:56:00,
2013-05-11 05:01:00,58.1,55.9,29.68,North,-999,-999.0,-999.0,92,0.00,,,0.00,tws,2013-05-11 09:01:00,
2013-05-11 05:06:00,58.0,55.8,29.67,North,-999,-999.0,-999.0,92,0.00,,,0.00,tws,2013-05-11 09:06:00,
2013-05-11 05:11:00,57.9,56.0,29.67,North,-999,-999.0,-999.0,93,0.00,,,0.00,tws,2013-05-11 09:11:00,
2013-05-11 05:16:00,57.9,56.1,29.67,North,-999,-999.0,-999.0,93,0.00,,,0.00,tws,2013-05-11 09:16:00,
2013-05-11 05:21:00,57.9,56.1,29.67,North,-999,-999.0,-999.0,93,0.00,,,0.00,tws,2013-05-11 09:21:00,
2013-05-11 05:26:00,57.8,56.1,29.67,North,-999,-999.0,-999.0,93,0.00,,,0.00,tws,2013-05-11 09:26:00,
2013-05-11 05:31:00,57.7,56.0,29.67,North,-999,-999.0,-999.0,94,0.00,,,0.00,tws,2013-05-11 09:31:00,
2013-05-11 05:36:00,57.6,55.9,29.67,North,-999,-999.0,-999.0,94,0.00,,,0.00,tws,2013-05-11 09:36:00,
2013-05-11 05:41:00,57.5,55.8,29.67,North,-999,-999.0,-999.0,93,0.00,,,0.00,tws,2013-05-11 09:41:00,
2013-05-11 05:46:00,57.4,55.7,29.67,North,-999,-999.0,-999.0,94,0.00,,,0.00,tws,2013-05-11 09:46:00,
2013-05-11 05:51:00,57.2,55.7,29.68,North,-999,-999.0,-999.0,94,0.00,,,0.00,tws,2013-05-11 09:51:00,
2013-05-11 05:56:00,57.2,55.6,29.68,North,-999,-999.0,-999.0,94,0.00,,,0.00,tws,2013-05-11 09:56:00,
2013-05-11 06:01:00,57.0,55.5,29.68,North,-999,-999.0,-999.0,94,0.00,,,0.00,tws,2013-05-11 10:01:00,
2013-05-11 06:06:00,56.9,55.4,29.69,North,-999,-999.0,-999.0,94,0.00,,,0.00,tws,2013-05-11 10:06:00,
2013-05-11 06:11:00,56.8,55.6,29.69,North,-999,-999.0,-999.0,95,0.00,,,0.00,tws,2013-05-11 10:11:00,
2013-05-11 06:16:00,56.9,55.7,29.69,North,-999,-999.0,-999.0,95,0.00,,,0.00,tws,2013-05-11 10:16:00,
2013-05-11 06:21:00,56.9,55.8,29.69,North,-999,-999.0,-999.0,96,0.00,,,0.00,tws,2013-05-11 10:21:00,
2013-05-11 06:26:00,57.0,55.9,29.68,North,-999,-999.0,-999.0,96,0.00,,,0.00,tws,2013-05-11 10:26:00,
2013-05-11 06:31:00,57.1,56.0,29.68,North,-999,-999.0,-999.0,96,0.00,,,0.00,tws,2013-05-11 10:31:00,
2013-05-11 06:36:00,57.1,55.9,29.68,North,-999,-999.0,-999.0,95,0.00,,,0.00,tws,2013-05-11 10:36:00,
2013-05-11 06:41:00,57.3,56.0,29.69,North,-999,-999.0,-999.0,95,0.00,,,0.00,tws,2013-05-11 10:41:00,
2013-05-11 06:46:00,57.4,56.0,29.69,North,-999,-999.0,-999.0,95,0.00,,,0.00,tws,2013-05-11 10:46:00,
2013-05-11 06:51:00,57.5,56.0,29.69,North,-999,-999.0,-999.0,94,0.00,,,0.00,tws,2013-05-11 10:51:00,
2013-05-11 06:56:00,57.5,56.0,29.69,North,-999,-999.0,-999.0,94,0.00,,,0.00,tws,2013-05-11 10:56:00,
2013-05-11 07:01:00,57.5,56.0,29.68,North,-999,-999.0,-999.0,94,0.00,,,0.00,tws,2013-05-11 11:01:00,
2013-05-11 07:06:00,57.5,55.8,29.67,North,-999,-999.0,-999.0,94,0.00,,,0.00,tws,2013-05-11 11:06:00,
2013-05-11 07:11:00,57.3,55.7,29.67,North,-999,-999.0,-999.0,94,0.00,,,0.00,tws,2013-05-11 11:11:00,
2013-05-11 07:16:00,57.1,55.5,29.68,North,-999,-999.0,-999.0,94,0.00,,,0.00,tws,2013-05-11 11:16:00,
2013-05-11 07:21:00,57.1,55.6,29.69,North,-999,-999.0,-999.0,94,0.00,,,0.00,tws,2013-05-11 11:21:00,
2013-05-11 07:26:00,57.2,55.8,29.69,North,-999,-999.0,-999.0,94,0.00,,,0.00,tws,2013-05-11 11:26:00,
2013-05-11 07:31:00,57.4,56.1,29.68,North,-999,-999.0,-999.0,95,0.00,,,0.00,tws,2013-05-11 11:31:00,
2013-05-11 07:36:00,57.7,56.5,29.68,North,-999,-999.0,-999.0,95,0.00,,,0.00,tws,2013-05-11 11:36:00,
2013-05-11 07:41:00,58.2,57.0,29.68,North,-999,-999.0,-999.0,95,0.00,,,0.00,tws,2013-05-11 11:41:00,
2013-05-11 07:46:00,58.8,57.3,29.68,North,-999,-999.0,-999.0,94,0.00,,,0.00,tws,2013-05-11 11:46:00,
2013-05-11 07:51:00,59.4,57.3,29.67,North,-999,-999.0,-999.0,92,0.00,,,0.00,tws,2013-05-11 11:51:00,
2013-05-11 07:56:00,59.8,57.2,29.68,North,-999,-999.0,-999.0,91,0.00,,,0.00,tws,2013-05-11 11:56:00,
2013-05-11 08:01:00,60.2,57.0,29.68,North,-999,-999.0,-999.0,89,0.00,,,0.00,tws,2013-05-11 12:01:00,
2013-05-11 08:06:00,60.5,56.7,29.69,North,-999,-999.0,-999.0,87,0.00,,,0.00,tws,2013-05-11 12:06:00,
2013-05-11 08:11:00,60.7,56.7,29.69,North,-999,-999.0,-999.0,86,0.00,,,0.00,tws,2013-05-11 12:11:00,
2013-05-11 08:16:00,60.9,56.7,29.69,North,-999,-999.0,-999.0,85,0.00,,,0.00,tws,2013-05-11 12:16:00,
2013-05-11 08:21:00,61.2,56.7,29.69,North,-999,-999.0,-999.0,85,0.00,,,0.00,tws,2013-05-11 12:21:00,
2013-05-11 08:26:00,61.5,56.5,29.69,North,-999,-999.0,-999.0,83,0.00,,,0.00,tws,2013-05-11 12:26:00,
2013-05-11 08:31:00,61.8,56.6,29.69,North,-999,-999.0,-999.0,83,0.00,,,0.00,tws,2013-05-11 12:31:00,
2013-05-11 08:36:00,62.3,56.7,29.69,North,-999,-999.0,-999.0,81,0.00,,,0.00,tws,2013-05-11 12:36:00,
2013-05-11 08:41:00,63.1,56.8,29.69,North,-999,-999.0,-999.0,79,0.00,,,0.00,tws,2013-05-11 12:41:00,
2013-05-11 08:46:00,63.8,56.8,29.69,North,-999,-999.0,-999.0,77,0.00,,,0.00,tws,2013-05-11 12:46:00,
2013-05-11 08:51:00,64.5,57.0,29.69,North,-999,-999.0,-999.0,76,0.00,,,0.00,tws,2013-05-11 12:51:00,
2013-05-11 08:56:00,65.2,57.0,29.69,North,-999,-999.0,-999.0,74,0.00,,,0.00,tws,2013-05-11 12:56:00,
2013-05-11 09:01:00,65.5,57.3,29.69,North,-999,-999.0,-999.0,74,0.00,,,0.00,tws,2013-05-11 13:01:00,
2013-05-11 09:06:00,65.8,57.2,29.69,North,-999,-999.0,-999.0,73,0.00,,,0.00,tws,2013-05-11 13:06:00,
2013-05-11 09:11:00,66.2,57.5,29.69,North,-999,-999.0,-999.0,73,0.00,,,0.00,tws,2013-05-11 13:11:00,
2013-05-11 09:16:00,66.5,57.7,29.69,North,-999,-999.0,-999.0,72,0.00,,,0.00,tws,2013-05-11 13:16:00,
2013-05-11 09:21:00,66.3,57.3,29.69,North,-999,-999.0,-999.0,72,0.00,,,0.00,tws,2013-05-11 13:21:00,
2013-05-11 09:26:00,66.0,57.2,29.69,North,-999,-999.0,-999.0,72,0.00,,,0.00,tws,2013-05-11 13:26:00,
2013-05-11 09:31:00,65.9,57.1,29.68,North,-999,-999.0,-999.0,72,0.00,,,0.00,tws,2013-05-11 13:31:00,
2013-05-11 09:36:00,66.4,57.3,29.68,North,-999,-999.0,-999.0,72,0.00,,,0.00,tws,2013-05-11 13:36:00,
2013-05-11 09:41:00,66.7,57.1,29.69,North,-999,-999.0,-999.0,70,0.00,,,0.00,tws,2013-05-11 13:41:00,
2013-05-11 09:46:00,67.0,57.4,29.69,North,-999,-999.0,-999.0,71,0.00,,,0.00,tws,2013-05-11 13:46:00,
2013-05-11 09:51:00,67.1,57.3,29.69,North,-999,-999.0,-999.0,70,0.00,,,0.00,tws,2013-05-11 13:51:00,
2013-05-11 09:56:00,67.5,57.7,29.69,North,-999,-999.0,-999.0,70,0.00,,,0.00,tws,2013-05-11 13:56:00,
2013-05-11 10:01:00,67.9,57.9,29.69,North,-999,-999.0,-999.0,70,0.00,,,0.00,tws,2013-05-11 14:01:00,
2013-05-11 10:06:00,68.3,57.9,29.69,North,-999,-999.0,-999.0,69,0.00,,,0.00,tws,2013-05-11 14:06:00,
2013-05-11 10:11:00,68.9,58.2,29.69,North,-999,-999.0,-999.0,68,0.00,,,0.00,tws,2013-05-11 14:11:00,
2013-05-11 10:16:00,69.3,58.0,29.69,North,-999,-999.0,-999.0,66,0.00,,,0.00,tws,2013-05-11 14:16:00,
2013-05-11 10:21:00,69.5,58.1,29.69,North,-999,-999.0,-999.0,66,0.00,,,0.00,tws,2013-05-11 14:21:00,
2013-05-11 10:26:00,69.1,57.2,29.69,North,-999,-999.0,-999.0,65,0.00,,,0.00,tws,2013-05-11 14:26:00,
2013-05-11 10:31:00,68.8,57.3,29.69,North,-999,-999.0,-999.0,66,0.00,,,0.00,tws,2013-05-11 14:31:00,
2013-05-11 10:36:00,68.6,57.3,29.70,North,-999,-999.0,-999.0,66,0.00,,,0.00,tws,2013-05-11 14:36:00,
2013-05-11 10:41:00,68.7,57.6,29.69,North,-999,-999.0,-999.0,67,0.00,,,0.00,tws,2013-05-11 14:41:00,
2013-05-11 10:46:00,68.9,57.7,29.69,North,-999,-999.0,-999.0,67,0.00,,,0.00,tws,2013-05-11 14:46:00,
2013-05-11 10:51:00,69.2,58.0,29.69,North,-999,-999.0,-999.0,67,0.00,,,0.00,tws,2013-05-11 14:51:00,
2013-05-11 10:56:00,69.5,57.8,29.69,North,-999,-999.0,-999.0,65,0.00,,,0.00,tws,2013-05-11 14:56:00,
2013-05-11 11:01:00,69.6,57.9,29.69,North,-999,-999.0,-999.0,66,0.00,,,0.00,tws,2013-05-11 15:01:00,
2013-05-11 11:06:00,69.6,57.7,29.68,North,-999,-999.0,-999.0,65,0.00,,,0.00,tws,2013-05-11 15:06:00,
2013-05-11 11:11:00,69.4,57.9,29.68,North,-999,-999.0,-999.0,66,0.00,,,0.00,tws,2013-05-11 15:11:00,
2013-05-11 11:16:00,69.3,57.4,29.68,North,-999,-999.0,-999.0,65,0.00,,,0.00,tws,2013-05-11 15:16:00,
2013-05-11 11:21:00,69.1,57.4,29.69,North,-999,-999.0,-999.0,65,0.00,,,0.00,tws,2013-05-11 15:21:00,
2013-05-11 11:26:00,69.0,57.5,29.68,North,-999,-999.0,-999.0,66,0.00,,,0.00,tws,2013-05-11 15:26:00,
2013-05-11 11:31:00,68.9,57.5,29.69,North,-999,-999.0,-999.0,66,0.00,,,0.00,tws,2013-05-11 15:31:00,
2013-05-11 11:36:00,68.8,57.6,29.68,North,-999,-999.0,-999.0,67,0.00,,,0.00,tws,2013-05-11 15:36:00,
2013-05-11 11:41:00,68.9,57.9,29.68,North,-999,-999.0,-999.0,67,0.00,,,0.00,tws,2013-05-11 15:41:00,
2013-05-11 11:46:00,69.1,57.4,29.68,North,-999,-999.0,-999.0,65,0.00,,,0.00,tws,2013-05-11 15:46:00,
2013-05-11 11:51:00,69.6,58.0,29.67,North,-999,-999.0,-999.0,66,0.00,,,0.00,tws,2013-05-11 15:51:00,
2013-05-11 11:56:00,70.1,58.0,29.68,North,-999,-999.0,-999.0,65,0.00,,,0.00,tws,2013-05-11 15:56:00,
2013-05-11 12:01:00,70.5,58.2,29.68,North,-999,-999.0,-999.0,64,0.00,,,0.00,tws,2013-05-11 16:01:00,
2013-05-11 12:06:00,70.8,58.5,29.68,North,-999,-999.0,-999.0,64,0.00,,,0.00,tws,2013-05-11 16:06:00,
2013-05-11 12:11:00,71.3,59.0,29.68,North,-999,-999.0,-999.0,64,0.00,,,0.00,tws,2013-05-11 16:11:00,
2013-05-11 12:16:00,71.6,58.7,29.68,North,-999,-999.0,-999.0,63,0.00,,,0.00,tws,2013-05-11 16:16:00,
2013-05-11 12:21:00,71.7,58.8,29.67,North,-999,-999.0,-999.0,63,0.00,,,0.00,tws,2013-05-11 16:21:00,
2013-05-11 12:26:00,71.6,58.5,29.67,North,-999,-999.0,-999.0,62,0.00,,,0.00,tws,2013-05-11 16:26:00,
2013-05-11 12:31:00,71.4,58.7,29.67,North,-999,-999.0,-999.0,63,0.00,,,0.00,tws,2013-05-11 16:31:00,
2013-05-11 12:36:00,71.0,58.3,29.67,North,-999,-999.0,-999.0,63,0.00,,,0.00,tws,2013-05-11 16:36:00,
2013-05-11 12:41:00,70.7,58.2,29.67,North,-999,-999.0,-999.0,64,0.00,,,0.00,tws,2013-05-11 16:41:00,
2013-05-11 12:46:00,71.0,58.5,29.67,North,-999,-999.0,-999.0,64,0.00,,,0.00,tws,2013-05-11 16:46:00,
2013-05-11 12:51:00,71.4,58.8,29.67,North,-999,-999.0,-999.0,64,0.00,,,0.00,tws,2013-05-11 16:51:00,
2013-05-11 12:56:00,71.8,58.7,29.67,North,-999,-999.0,-999.0,62,0.00,,,0.00,tws,2013-05-11 16:56:00,
2013-05-11 13:01:00,72.1,58.2,29.67,North,-999,-999.0,-999.0,61,0.00,,,0.00,tws,2013-05-11 17:01:00,
2013-05-11 13:06:00,72.2,58.7,29.67,North,-999,-999.0,-999.0,62,0.00,,,0.00,tws,2013-05-11 17:06:00,
2013-05-11 13:11:00,72.2,58.6,29.67,North,-999,-999.0,-999.0,61,0.00,,,0.00,tws,2013-05-11 17:11:00,
2013-05-11 13:16:00,72.3,58.6,29.67,North,-999,-999.0,-999.0,61,0.00,,,0.00,tws,2013-05-11 17:16:00,
2013-05-11 13:21:00,72.5,58.7,29.67,North,-999,-999.0,-999.0,61,0.00,,,0.00,tws,2013-05-11 17:21:00,
2013-05-11 13:26:00,72.7,59.0,29.66,North,-999,-999.0,-999.0,61,0.00,,,0.00,tws,2013-05-11 17:26:00,
2013-05-11 13:31:00,73.0,59.0,29.66,North,-999,-999.0,-999.0,61,0.00,,,0.00,tws,2013-05-11 17:31:00,
2013-05-11 13:36:00,73.0,58.9,29.66,North,-999,-999.0,-999.0,60,0.00,,,0.00,tws,2013-05-11 17:36:00,
2013-05-11 13:41:00,73.1,58.5,29.66,North,-999,-999.0,-999.0,59,0.00,,,0.00,tws,2013-05-11 17:41:00,
2013-05-11 13:46:00,73.1,58.9,29.66,North,-999,-999.0,-999.0,60,0.00,,,0.00,tws,2013-05-11 17:46:00,
2013-05-11 13:51:00,72.8,58.8,29.66,North,-999,-999.0,-999.0,61,0.00,,,0.00,tws,2013-05-11 17:51:00,
2013-05-11 13:56:00,72.2,58.4,29.66,North,-999,-999.0,-999.0,61,0.00,,,0.00,tws,2013-05-11 17:56:00,
2013-05-11 14:01:00,71.8,58.6,29.66,North,-999,-999.0,-999.0,62,0.00,,,0.00,tws,2013-05-11 18:01:00,
2013-05-11 14:06:00,72.0,58.6,29.65,North,-999,-999.0,-999.0,62,0.00,,,0.00,tws,2013-05-11 18:06:00,
2013-05-11 14:11:00,72.4,59.0,29.65,North,-999,-999.0,-999.0,62,0.00,,,0.00,tws,2013-05-11 18:11:00,
2013-05-11 14:16:00,72.6,58.9,29.65,North,-999,-999.0,-999.0,61,0.00,,,0.00,tws,2013-05-11 18:16:00,
2013-05-11 14:21:00,72.5,58.6,29.65,North,-999,-999.0,-999.0,61,0.00,,,0.00,tws,2013-05-11 18:21:00,
2013-05-11 14:26:00,72.2,58.3,29.65,North,-999,-999.0,-999.0,61,0.00,,,0.00,tws,2013-05-11 18:26:00,
2013-05-11 14:31:00,71.9,58.2,29.64,North,-999,-999.0,-999.0,61,0.00,,,0.00,tws,2013-05-11 18:31:00,
2013-05-11 14:36:00,72.0,58.3,29.64,North,-999,-999.0,-999.0,61,0.00,,,0.00,tws,2013-05-11 18:36:00,
2013-05-11 14:41:00,72.2,58.4,29.63,North,-999,-999.0,-999.0,61,0.00,,,0.00,tws,2013-05-11 18:41:00,
2013-05-11 14:46:00,72.3,57.9,29.63,North,-999,-999.0,-999.0,59,0.00,,,0.00,tws,2013-05-11 18:46:00,
2013-05-11 14:51:00,72.8,58.5,29.63,North,-999,-999.0,-999.0,60,0.00,,,0.00,tws,2013-05-11 18:51:00,
2013-05-11 14:56:00,73.4,58.9,29.63,North,-999,-999.0,-999.0,59,0.00,,,0.00,tws,2013-05-11 18:56:00,
2013-05-11 15:01:00,73.5,58.1,29.63,North,-999,-999.0,-999.0,58,0.00,,,0.00,tws,2013-05-11 19:01:00,
2013-05-11 15:06:00,73.3,58.0,29.63,North,-999,-999.0,-999.0,58,0.00,,,0.00,tws,2013-05-11 19:06:00,
2013-05-11 15:11:00,73.1,58.6,29.63,North,-999,-999.0,-999.0,60,0.00,,,0.00,tws,2013-05-11 19:11:00,
2013-05-11 15:16:00,72.9,58.8,29.63,North,-999,-999.0,-999.0,60,0.00,,,0.00,tws,2013-05-11 19:16:00,
2013-05-11 15:21:00,72.5,58.8,29.63,North,-999,-999.0,-999.0,61,0.00,,,0.00,tws,2013-05-11 19:21:00,
2013-05-11 15:26:00,71.8,58.3,29.63,North,-999,-999.0,-999.0,61,0.00,,,0.00,tws,2013-05-11 19:26:00,
2013-05-11 15:31:00,71.3,58.1,29.64,North,-999,-999.0,-999.0,62,0.00,,,0.00,tws,2013-05-11 19:31:00,
2013-05-11 15:36:00,70.9,58.1,29.64,North,-999,-999.0,-999.0,63,0.00,,,0.00,tws,2013-05-11 19:36:00,
2013-05-11 15:41:00,70.9,58.3,29.63,North,-999,-999.0,-999.0,63,0.00,,,0.00,tws,2013-05-11 19:41:00,
2013-05-11 15:46:00,71.3,58.2,29.63,North,-999,-999.0,-999.0,62,0.00,,,0.00,tws,2013-05-11 19:46:00,
2013-05-11 15:51:00,71.8,58.2,29.62,North,-999,-999.0,-999.0,61,0.00,,,0.00,tws,2013-05-11 19:51:00,
2013-05-11 15:56:00,72.2,58.2,29.62,North,-999,-999.0,-999.0,60,0.00,,,0.00,tws,2013-05-11 19:56:00,
2013-05-11 16:01:00,72.5,58.4,29.62,North,-999,-999.0,-999.0,60,0.00,,,0.00,tws,2013-05-11 20:01:00,
2013-05-11 16:06:00,73.2,58.9,29.61,North,-999,-999.0,-999.0,60,0.00,,,0.00,tws,2013-05-11 20:06:00,
2013-05-11 16:11:00,73.9,59.4,29.61,North,-999,-999.0,-999.0,60,0.00,,,0.00,tws,2013-05-11 20:11:00,
2013-05-11 16:16:00,74.2,58.9,29.61,North,-999,-999.0,-999.0,58,0.00,,,0.00,tws,2013-05-11 20:16:00,
2013-05-11 16:21:00,74.3,58.6,29.61,North,-999,-999.0,-999.0,57,0.00,,,0.00,tws,2013-05-11 20:21:00,
2013-05-11 16:26:00,74.5,59.4,29.60,North,-999,-999.0,-999.0,58,0.00,,,0.00,tws,2013-05-11 20:26:00,
2013-05-11 16:31:00,74.9,59.7,29.60,North,-999,-999.0,-999.0,58,0.00,,,0.00,tws,2013-05-11 20:31:00,
2013-05-11 16:36:00,75.2,58.8,29.60,North,-999,-999.0,-999.0,56,0.00,,,0.00,tws,2013-05-11 20:36:00,
2013-05-11 16:41:00,75.2,58.1,29.61,North,-999,-999.0,-999.0,54,0.00,,,0.00,tws,2013-05-11 20:41:00,
2013-05-11 16:46:00,75.0,57.6,29.60,North,-999,-999.0,-999.0,54,0.00,,,0.00,tws,2013-05-11 20:46:00,
2013-05-11 16:51:00,74.8,57.2,29.60,North,-999,-999.0,-999.0,53,0.00,,,0.00,tws,2013-05-11 20:51:00,
2013-05-11 16:56:00,74.7,57.7,29.60,North,-999,-999.0,-999.0,54,0.00,,,0.00,tws,2013-05-11 20:56:00,
2013-05-11 17:01:00,74.5,57.6,29.60,North,-999,-999.0,-999.0,55,0.00,,,0.00,tws,2013-05-11 21:01:00,
2013-05-11 17:06:00,74.5,58.0,29.60,North,-999,-999.0,-999.0,55,0.00,,,0.00,tws,2013-05-11 21:06:00,
2013-05-11 17:11:00,74.7,57.4,29.60,North,-999,-999.0,-999.0,54,0.00,,,0.00,tws,2013-05-11 21:11:00,
2013-05-11 17:16:00,74.5,57.5,29.60,North,-999,-999.0,-999.0,54,0.00,,,0.00,tws,2013-05-11 21:16:00,
2013-05-11 17:21:00,74.1,57.6,29.60,North,-999,-999.0,-999.0,55,0.00,,,0.00,tws,2013-05-11 21:21:00,
2013-05-11 17:26:00,73.8,57.6,29.60,North,-999,-999.0,-999.0,56,0.00,,,0.00,tws,2013-05-11 21:26:00,
2013-05-11 17:31:00,72.3,57.5,29.60,North,-999,-999.0,-999.0,59,0.00,,,0.00,tws,2013-05-11 21:31:00,
2013-05-11 17:36:00,70.8,57.3,29.61,North,-999,-999.0,-999.0,61,0.00,,,0.00,tws,2013-05-11 21:36:00,
2013-05-11 17:41:00,69.8,57.4,29.61,North,-999,-999.0,-999.0,64,0.00,,,0.00,tws,2013-05-11 21:41:00,
2013-05-11 17:46:00,68.8,57.1,29.61,North,-999,-999.0,-999.0,65,0.00,,,0.00,tws,2013-05-11 21:46:00,
2013-05-11 17:51:00,68.1,57.1,29.60,North,-999,-999.0,-999.0,67,0.00,,,0.00,tws,2013-05-11 21:51:00,
2013-05-11 17:56:00,67.5,57.0,29.60,North,-999,-999.0,-999.0,68,0.00,,,0.00,tws,2013-05-11 21:56:00,
2013-05-11 18:01:00,67.1,56.7,29.60,North,-999,-999.0,-999.0,68,0.00,,,0.00,tws,2013-05-11 22:01:00,
2013-05-11 18:06:00,66.7,56.9,29.61,North,-999,-999.0,-999.0,70,0.00,,,0.00,tws,2013-05-11 22:06:00,
2013-05-11 18:11:00,66.7,57.3,29.61,North,-999,-999.0,-999.0,71,0.00,,,0.00,tws,2013-05-11 22:11:00,
2013-05-11 18:16:00,66.7,57.6,29.62,North,-999,-999.0,-999.0,72,0.00,,,0.00,tws,2013-05-11 22:16:00,
2013-05-11 18:21:00,66.6,57.6,29.61,North,-999,-999.0,-999.0,72,0.00,,,0.00,tws,2013-05-11 22:21:00,
2013-05-11 18:26:00,66.3,57.6,29.60,North,-999,-999.0,-999.0,73,0.00,,,0.00,tws,2013-05-11 22:26:00,
2013-05-11 18:31:00,66.1,57.7,29.60,North,-999,-999.0,-999.0,74,0.00,,,0.00,tws,2013-05-11 22:31:00,
2013-05-11 18:36:00,66.1,57.7,29.61,North,-999,-999.0,-999.0,74,0.00,,,0.00,tws,2013-05-11 22:36:00,
2013-05-11 18:41:00,66.1,57.3,29.61,North,-999,-999.0,-999.0,73,0.00,,,0.00,tws,2013-05-11 22:41:00,
2013-05-11 18:46:00,66.1,57.8,29.61,North,-999,-999.0,-999.0,74,0.00,,,0.00,tws,2013-05-11 22:46:00,
2013-05-11 18:51:00,66.0,57.2,29.61,North,-999,-999.0,-999.0,72,0.00,,,0.00,tws,2013-05-11 22:51:00,
2013-05-11 18:56:00,66.0,56.6,29.60,North,-999,-999.0,-999.0,71,0.00,,,0.00,tws,2013-05-11 22:56:00,
2013-05-11 19:01:00,65.9,57.0,29.60,North,-999,-999.0,-999.0,72,0.00,,,0.00,tws,2013-05-11 23:01:00,
2013-05-11 19:06:00,65.7,57.2,29.60,North,-999,-999.0,-999.0,73,0.00,,,0.00,tws,2013-05-11 23:06:00,
2013-05-11 19:16:00,65.4,57.7,29.61,North,-999,-999.0,-999.0,76,0.00,,,0.00,tws,2013-05-11 23:16:00,
2013-05-11 19:21:00,65.2,57.7,29.61,North,-999,-999.0,-999.0,76,0.00,,,0.00,tws,2013-05-11 23:21:00,
2013-05-11 19:26:00,65.0,57.8,29.62,North,-999,-999.0,-999.0,77,0.00,,,0.00,tws,2013-05-11 23:26:00,
2013-05-11 19:31:00,64.8,57.6,29.61,North,-999,-999.0,-999.0,77,0.00,,,0.00,tws,2013-05-11 23:31:00,
2013-05-11 19:36:00,64.6,57.2,29.61,North,-999,-999.0,-999.0,76,0.00,,,0.00,tws,2013-05-11 23:36:00,
2013-05-11 19:41:00,64.6,57.1,29.62,North,-999,-999.0,-999.0,76,0.00,,,0.00,tws,2013-05-11 23:41:00,
2013-05-11 19:46:00,64.5,57.2,29.62,North,-999,-999.0,-999.0,76,0.00,,,0.00,tws,2013-05-11 23:46:00,
2013-05-11 19:51:00,64.5,57.3,29.62,North,-999,-999.0,-999.0,77,0.00,,,0.00,tws,2013-05-11 23:51:00,
2013-05-11 19:56:00,64.4,57.5,29.62,North,-999,-999.0,-999.0,78,0.00,,,0.00,tws,2013-05-11 23:56:00,
2013-05-11 20:01:00,64.3,57.6,29.62,North,-999,-999.0,-999.0,78,0.00,,,0.00,tws,2013-05-12 00:01:00,
2013-05-11 20:06:00,64.1,57.7,29.62,North,-999,-999.0,-999.0,79,0.00,,,0.00,tws,2013-05-12 00:06:00,
2013-05-11 20:11:00,63.8,57.6,29.63,North,-999,-999.0,-999.0,79,0.00,,,0.00,tws,2013-05-12 00:11:00,
2013-05-11 20:16:00,63.4,57.9,29.63,North,-999,-999.0,-999.0,82,0.00,,,0.00,tws,2013-05-12 00:16:00,
2013-05-11 20:21:00,62.9,57.9,29.63,North,-999,-999.0,-999.0,83,0.00,,,0.00,tws,2013-05-12 00:21:00,
2013-05-11 20:26:00,62.6,58.3,29.63,North,-999,-999.0,-999.0,85,0.00,,,0.00,tws,2013-05-12 00:26:00,
2013-05-11 20:31:00,62.3,58.4,29.62,North,-999,-999.0,-999.0,86,0.00,,,0.00,tws,2013-05-12 00:31:00,
2013-05-11 20:36:00,62.0,58.4,29.62,North,-999,-999.0,-999.0,87,0.00,,,0.00,tws,2013-05-12 00:36:00,
2013-05-11 20:41:00,61.8,58.5,29.62,North,-999,-999.0,-999.0,88,0.00,,,0.00,tws,2013-05-12 00:41:00,
2013-05-11 20:46:00,61.7,58.6,29.62,North,-999,-999.0,-999.0,89,0.00,,,0.00,tws,2013-05-12 00:46:00,
2013-05-11 20:51:00,61.6,58.6,29.62,North,-999,-999.0,-999.0,89,0.00,,,0.00,tws,2013-05-12 00:51:00,
2013-05-11 20:56:00,61.5,58.6,29.62,North,-999,-999.0,-999.0,90,0.00,,,0.00,tws,2013-05-12 00:56:00,
2013-05-11 21:01:00,61.5,58.6,29.62,North,-999,-999.0,-999.0,90,0.00,,,0.00,tws,2013-05-12 01:01:00,
2013-05-11 21:06:00,61.4,58.6,29.63,North,-999,-999.0,-999.0,90,0.00,,,0.00,tws,2013-05-12 01:06:00,
2013-05-11 21:11:00,61.4,58.8,29.63,North,-999,-999.0,-999.0,91,0.00,,,0.00,tws,2013-05-12 01:11:00,
2013-05-11 21:16:00,61.4,59.0,29.63,North,-999,-999.0,-999.0,91,0.00,,,0.00,tws,2013-05-12 01:16:00,
2013-05-11 21:21:00,61.3,58.9,29.62,North,-999,-999.0,-999.0,91,0.00,,,0.00,tws,2013-05-12 01:21:00,
2013-05-11 21:26:00,61.3,58.8,29.62,North,-999,-999.0,-999.0,91,0.00,,,0.00,tws,2013-05-12 01:26:00,
2013-05-11 21:31:00,61.2,58.8,29.62,North,-999,-999.0,-999.0,91,0.00,,,0.00,tws,2013-05-12 01:31:00,
2013-05-11 21:36:00,61.2,58.8,29.62,North,-999,-999.0,-999.0,91,0.00,,,0.00,tws,2013-05-12 01:36:00,
2013-05-11 21:41:00,61.2,58.8,29.62,North,-999,-999.0,-999.0,91,0.00,,,0.00,tws,2013-05-12 01:41:00,
2013-05-11 21:46:00,61.2,58.8,29.63,North,-999,-999.0,-999.0,91,0.12,,,0.01,tws,2013-05-12 01:46:00,
2013-05-11 21:51:00,61.2,58.8,29.63,North,-999,-999.0,-999.0,91,0.00,,,0.01,tws,2013-05-12 01:51:00,
2013-05-11 21:56:00,61.2,58.8,29.63,North,-999,-999.0,-999.0,91,0.00,,,0.01,tws,2013-05-12 01:56:00,
2013-05-11 22:01:00,61.3,58.9,29.63,North,-999,-999.0,-999.0,91,0.00,,,0.01,tws,2013-05-12 02:01:00,
2013-05-11 22:06:00,61.4,59.0,29.63,North,-999,-999.0,-999.0,91,0.00,,,0.01,tws,2013-05-12 02:06:00,
2013-05-11 22:11:00,61.4,59.0,29.63,North,-999,-999.0,-999.0,91,0.00,,,0.01,tws,2013-05-12 02:11:00,
2013-05-11 22:16:00,61.4,59.0,29.63,North,-999,-999.0,-999.0,91,0.00,,,0.01,tws,2013-05-12 02:16:00,
2013-05-11 22:21:00,61.4,58.9,29.63,North,-999,-999.0,-999.0,91,0.00,,,0.01,tws,2013-05-12 02:21:00,
2013-05-11 22:26:00,61.4,58.8,29.64,North,-999,-999.0,-999.0,91,0.00,,,0.01,tws,2013-05-12 02:26:00,
2013-05-11 22:31:00,61.4,58.8,29.64,North,-999,-999.0,-999.0,91,0.00,,,0.01,tws,2013-05-12 02:31:00,
2013-05-11 22:36:00,61.3,57.9,29.64,North,-999,-999.0,-999.0,88,0.00,,,0.01,tws,2013-05-12 02:36:00,
2013-05-11 22:41:00,61.4,56.6,29.64,North,-999,-999.0,-999.0,84,0.00,,,0.01,tws,2013-05-12 02:41:00,
2013-05-11 22:46:00,61.5,56.2,29.65,North,-999,-999.0,-999.0,82,0.00,,,0.01,tws,2013-05-12 02:46:00,
2013-05-11 22:51:00,61.6,55.7,29.66,North,-999,-999.0,-999.0,80,0.00,,,0.01,tws,2013-05-12 02:51:00,
2013-05-11 22:56:00,61.5,55.4,29.66,North,-999,-999.0,-999.0,80,0.00,,,0.01,tws,2013-05-12 02:56:00,
2013-05-11 23:01:00,61.3,55.0,29.66,North,-999,-999.0,-999.0,79,0.00,,,0.01,tws,2013-05-12 03:01:00,
2013-05-11 23:06:00,61.2,54.8,29.66,North,-999,-999.0,-999.0,79,0.00,,,0.01,tws,2013-05-12 03:06:00,
2013-05-11 23:11:00,61.0,54.4,29.67,North,-999,-999.0,-999.0,78,0.00,,,0.01,tws,2013-05-12 03:11:00,
2013-05-11 23:16:00,60.9,54.1,29.66,North,-999,-999.0,-999.0,78,0.00,,,0.01,tws,2013-05-12 03:16:00,
2013-05-11 23:21:00,60.7,53.7,29.66,North,-999,-999.0,-999.0,77,0.00,,,0.01,tws,2013-05-12 03:21:00,
2013-05-11 23:26:00,60.5,53.1,29.66,North,-999,-999.0,-999.0,76,0.00,,,0.01,tws,2013-05-12 03:26:00,
2013-05-11 23:31:00,60.4,52.9,29.66,North,-999,-999.0,-999.0,75,0.00,,,0.01,tws,2013-05-12 03:31:00,
2013-05-11 23:36:00,60.2,52.6,29.66,North,-999,-999.0,-999.0,75,0.00,,,0.01,tws,2013-05-12 03:36:00,
2013-05-11 23:41:00,60.1,52.6,29.66,North,-999,-999.0,-999.0,75,0.00,,,0.01,tws,2013-05-12 03:41:00,
2013-05-11 23:46:00,59.9,52.7,29.66,North,-999,-999.0,-999.0,76,0.00,,,0.01,tws,2013-05-12 03:46:00,
2013-05-11 23:51:00,59.7,52.1,29.67,North,-999,-999.0,-999.0,75,0.00,,,0.01,tws,2013-05-12 03:51:00,
2013-05-11 23:56:00,59.6,51.8,29.66,North,-999,-999.0,-999.0,75,0.00,,,0.01,tws,2013-05-12 03:56:00,